Regional Weather Roundup
Issued by NWS

Home | Current Version | Previous Version | Text Only | Print | Product List | Glossary On
Versions: 1 2 3 4 5 6 7 8 9 10 11 12 13 14 15 16 17 18 19 20 21 22 23 24 25 26 27 28 29 30 31 32 33 34 35 36 37 38 39 40 41 42 43 44 45 46 47 48 49 50
000
ASUS43 KTOP 211108
RWRKS

WEATHER ROUNDUP FOR KANSAS
NATIONAL WEATHER SERVICE GOODLAND KS
600 AM CDT TUE OCT 21 2014

NOTE:  "FAIR" INDICATES FEW OR NO CLOUDS BELOW 12,000 FEET WITH NO
SIGNIFICANT WEATHER AND/OR OBSTRUCTIONS TO VISIBILITY.

KSZ001>006-013>018-027>032-041>047-211200-
NORTHWEST KANSAS

CITY           SKY/WX    TMP DP  RH WIND       PRES   REMARKS
GOODLAND       CLEAR     48  47  96 S9        30.07F
HAYS           CLEAR     45  36  70 CALM      30.08S
HILL CITY      CLEAR     41  37  86 CALM      30.09R
RUSSELL        CLEAR     47  42  83 S8        30.07S
$$

KSZ061>065-074>080-084>089-211200-
SOUTHWEST KANSAS

CITY           SKY/WX    TMP DP  RH WIND       PRES   REMARKS
DODGE CITY     CLEAR     53  49  86 SE8       30.08S
ELKHART          N/A     51  47  86 W3          N/A
GARDEN CITY    CLEAR     49  46  90 E3        30.07R
GREAT BEND     CLEAR     46  39  76 CALM      30.09S
LIBERAL        PTCLDY    54  48  82 SE5       30.08S
PRATT          PTCLDY    55  52  88 E5        30.09S
$$

KSZ066>073-081>083-090>101-211200-
SOUTHEAST KANSAS

CITY           SKY/WX    TMP DP  RH WIND       PRES   REMARKS
CHANUTE        CLEAR     47  46  97 CALM      30.09R
COFFEYVILLE    CLOUDY    49  49 100 CALM      30.09S FOG
HUTCHINSON     CLEAR     48  44  86 E3        30.09R
MEDICINE LODGE   N/A     59  57  93 E5        30.06S
NEWTON         CLEAR     52  41  66 SE5       30.11S
PARSONS        CLEAR     47  47 100 CALM      30.10R
WICHITA INTL   PTCLDY    52  48  86 E5        30.08R
WICHITA JABRA  CLEAR     49  45  86 NE3       30.09R
WICHITA MCCONL CLEAR     54  54 100 E6        30.09R
WINFIELD       CLEAR     54  53  97 CALM      30.09R
$$

KSZ007>012-019>026-033>040-048>060-102>105-211200-
NORTHEAST KANSAS

CITY           SKY/WX    TMP DP  RH WIND       PRES   REMARKS
CONCORDIA      CLEAR     43  41  93 CALM      30.08S
EMPORIA        CLEAR     45  43  93 CALM      30.10R
LAWRENCE       CLEAR     37  35  92 N3        30.11R
MANHATTAN      CLEAR     39  38  96 CALM      30.10S
MARYSVILLE     CLEAR     39  37  93 CALM      30.10R
OLATHE IND     CLEAR     45  42  89 CALM      30.11R
OLATHE EXE     CLEAR     47  45  93 CALM      30.10R
SALINA         CLEAR     46  43  89 CALM      30.09R
TOPEKA BILLARD CLEAR     40  38  93 CALM      30.11S
TOPEKA FORBES  CLEAR     41  38  89 CALM      30.10R
$$


USA.gov is the U.S. government's official web portal to all federal, state and local government web resources and services.